Wind_Speed
29 29 29 29 29 29 29 30 30 30 30 31 31 31 31 32 32 32 32 32 32 32 33 33 34 35 35 36 37 38 38 39 39 40 40 41 42 43 44 44 44 45 45
31 31 31 31 31 31 31 31 31 32 32 32 32 33 33 33 33 34 34 34 34 35 35 35 36 37 38 38 39 39 40 41 41 42 43 43 44 45 46 46 46 47 47
32 32 32 32 32 32 32 33 33 33 33 33 33 33 34 34 34 35 35 35 36 36 37 38 38 38 39 40 40 41 41 42 43 44 45 46 47 47 48 48 48 48 48
33 33 33 33 33 33 33 34 34 33 34 34 34 34 34 35 35 36 36 37 37 38 38 39 39 40 41 41 42 43 43 44 45 46 47 48 49 50 50 50 50 50 50
33 34 34 34 34 34 34 34 34 34 34 34 34 35 35 36 36 36 37 38 38 39 39 40 40 41 42 44 44 45 46 47 48 49 50 51 51 52 52 52 52 52 52
33 33 33 33 33 34 34 34 34 34 34 35 35 35 36 36 37 37 38 39 39 39 39 40 41 42 43 44 46 47 48 49 49 50 51 52 53 53 54 54 54 54 54
33 34 33 33 33 33 33 33 34 34 34 34 35 36 36 37 37 38 38 39 39 39 40 41 42 43 44 45 46 47 48 48 49 50 51 52 52 53 54 54 55 55 55
33 33 33 33 33 33 33 33 34 34 35 35 36 36 37 37 38 38 39 39 40 40 41 42 43 44 45 46 46 47 47 48 48 49 50 51 52 52 52 54 55 56 56
33 33 33 32 33 33 33 34 35 35 35 36 37 37 38 38 38 38 38 39 40 41 41 43 44 44 45 46 47 48 48 49 49 49 49 50 51 52 53 55 56 57 57
32 32 32 32 33 33 34 35 36 36 37 37 38 38 39 40 39 39 39 40 40 41 42 43 44 45 45 46 47 47 48 48 49 49 50 51 52 52 54 55 56 56 56
31 32 32 32 33 34 34 35 35 36 36 36 37 37 38 39 39 40 40 40 41 42 43 44 45 45 45 46 47 47 48 49 49 50 51 51 52 53 54 54 54 54 54
32 32 32 32 32 32 33 33 34 34 35 35 36 37 37 38 39 40 41 41 42 43 44 45 46 46 46 47 48 48 49 49 50 51 52 52 53 53 52 52 52 51 52
32 32 31 31 32 32 32 33 34 35 35 36 37 38 38 39 40 41 42 43 43 44 45 46 47 47 48 48 48 49 49 50 51 53 53 54 53 52 51 51 50 51 51
32 32 32 33 33 33 34 34 35 36 37 37 38 38 39 40 41 42 43 44 44 44 46 46 47 48 48 49 49 50 50 52 53 54 54 53 52 50 50 50 50 50 50
33 33 33 33 34 34 34 35 36 37 37 38 39 40 41 41 42 43 44 45 46 46 46 46 47 48 49 50 51 51 52 54 54 54 53 52 50 50 50 49 48 47 46
34 34 34 34 35 35 35 36 37 37 38 39 40 41 41 42 43 44 45 46 47 48 48 47 47 48 49 50 51 53 53 53 53 52 52 50 49 48 47 46 44 44 44
35 35 35 36 36 36 36 37 38 38 39 40 41 41 42 43 43 44 46 47 48 49 49 47 48 48 50 51 52 52 52 52 51 50 49 46 46 45 44 43 43 42 41
36 36 36 36 37 37 37 38 39 40 40 41 42 42 42 43 44 45 46 47 48 49 49 48 48 48 50 51 52 52 51 50 49 47 45 44 43 42 41 41 40 40 39
36 36 36 36 37 38 38 39 40 41 41 42 42 42 43 44 45 46 47 48 48 48 49 48 48 49 50 51 51 50 48 47 46 44 43 42 40 40 39 39 38 38 37
36 37 37 37 38 39 39 40 41 41 41 42 42 42 43 44 45 46 47 48 48 48 48 48 48 49 49 49 48 46 45 44 43 41 40 39 39 38 38 37 37 36 35
37 37 37 38 39 39 40 40 41 41 42 41 41 42 43 44 45 46 46 47 47 47 47 48 48 48 48 46 45 44 43 40 39 38 37 37 36 36 36 36 35 34 32
38 38 38 39 39 39 40 41 41 41 41 41 42 43 43 44 45 45 45 46 47 47 47 47 47 47 45 43 42 42 40 37 35 34 34 34 34 34 33 33 32 30 29
39 38 38 39 39 40 40 41 41 41 41 42 42 43 43 44 44 45 45 45 46 46 46 46 46 44 42 41 40 39 37 35 33 32 32 32 33 32 31 30 29 29 28
38 39 39 39 40 40 41 41 41 41 42 42 42 43 43 43 43 44 44 44 45 45 44 44 42 41 40 40 39 37 34 32 32 32 32 31 30 29 28 28 28 27 26
38 39 39 39 40 41 41 41 41 41 41 41 42 42 42 42 42 42 43 43 43 42 42 41 39 39 39 38 37 34 32 31 30 30 30 29 27 27 26 25 24 24 23
38 38 39 39 39 40 41 41 41 41 41 41 41 41 41 41 41 41 41 41 41 40 39 38 38 38 37 36 33 31 30 29 29 28 28 27 26 25 23 22 22 22 21
Wind_Direction
264 265 267 269 270 270 271 272 274 275 276 277 278 279 280 281 282 282 283 283 284 284 285 286 287 287 288 288 287 286 285 284 283 283 283 283 282 282 281 280 279 278 278
264 266 268 269 270 270 271 272 274 276 277 277 279 280 280 281 281 282 283 283 284 285 285 286 287 288 288 288 287 286 286 285 284 284 284 283 282 282 280 280 280 279 279
263 266 267 269 269 270 271 273 274 276 277 277 279 280 280 280 281 282 283 284 284 285 285 286 286 287 287 287 287 286 286 285 285 285 284 283 282 281 281 279 279 279 278
264 266 267 268 269 270 271 273 274 275 277 278 279 280 280 280 281 283 283 284 284 285 285 286 286 286 286 287 287 286 286 286 286 285 284 283 282 282 281 280 279 278 278
265 266 267 268 269 270 272 273 275 276 277 278 279 280 281 281 282 283 284 285 285 286 286 286 286 287 287 287 287 287 287 287 286 286 285 284 283 282 281 281 280 279 278
264 266 267 269 270 271 273 274 275 276 277 279 279 280 282 283 284 284 285 286 286 287 288 288 288 288 288 288 288 289 289 288 287 287 286 286 284 283 282 281 280 279 278
264 265 267 269 270 271 273 274 276 276 278 279 280 281 283 284 285 285 285 286 287 288 289 289 290 290 290 290 290 290 290 290 289 288 288 288 286 284 283 282 281 279 278
263 265 267 269 271 271 273 274 276 277 279 280 281 282 283 284 285 285 286 287 288 289 290 291 291 292 293 293 292 291 291 291 290 290 289 289 288 286 284 282 281 280 279
264 265 267 269 270 272 274 275 276 278 279 281 282 283 283 283 283 284 286 287 288 290 291 292 293 294 295 294 293 293 292 291 290 291 291 290 289 288 287 284 283 281 280
264 265 267 268 270 272 274 275 276 278 280 281 282 283 284 285 284 284 285 287 289 290 292 293 294 295 296 295 295 294 293 292 291 291 291 290 291 290 288 287 285 283 281
264 266 268 270 271 273 274 276 278 279 281 283 283 284 285 285 285 286 286 287 289 291 292 294 295 296 297 297 296 295 294 293 292 293 292 292 291 291 289 288 286 285 283
264 266 269 270 272 273 275 277 279 281 282 284 285 286 287 287 288 288 288 289 290 292 293 295 296 296 297 296 296 296 295 295 294 295 295 295 293 291 290 288 287 286 285
264 266 268 270 272 274 275 278 280 282 284 285 286 287 287 288 289 290 291 291 292 293 294 296 296 297 297 297 296 296 297 297 297 296 296 296 294 292 290 289 288 287 286
263 265 267 270 272 274 275 278 280 282 284 285 286 287 288 289 290 291 292 293 294 294 295 296 296 297 297 296 296 297 298 298 298 298 297 297 295 293 292 290 289 288 287
263 265 268 270 273 274 277 279 281 283 285 286 287 288 288 289 291 292 293 294 295 296 296 296 296 296 296 296 297 298 298 299 299 299 298 297 295 294 292 291 290 289 288
263 265 268 270 273 275 277 280 282 284 286 287 288 289 290 290 292 293 294 295 296 297 298 297 296 296 297 298 298 298 299 299 298 298 298 297 296 295 294 292 290 289 288
263 265 268 271 273 275 278 280 283 285 287 288 288 289 290 292 293 294 296 297 298 298 298 297 297 298 299 299 299 298 299 299 300 299 298 297 297 297 296 294 293 292 290
263 265 268 271 273 276 279 281 283 285 287 288 288 290 291 292 294 296 297 298 299 299 299 298 299 299 300 300 300 299 299 299 300 299 298 298 298 298 297 296 295 293 291
264 266 268 271 274 277 279 281 284 286 287 288 289 290 291 293 295 296 297 299 299 299 299 300 300 300 300 300 300 299 299 300 300 299 299 299 299 299 298 297 296 295 292
264 266 269 272 275 278 280 283 285 286 288 289 290 291 292 294 295 296 298 299 300 300 300 301 302 302 301 301 300 300 299 299 299 298 298 298 299 298 297 296 296 294 292
264 267 270 273 276 279 281 283 285 287 288 289 290 292 294 295 296 297 299 300 300 300 301 302 302 302 302 301 301 301 300 300 299 299 298 299 299 298 298 297 295 293 291
265 267 270 273 276 279 282 284 286 287 288 289 291 293 295 296 297 298 299 300 301 302 302 303 303 302 303 302 302 303 302 301 299 300 299 300 300 299 298 297 296 295 293
266 268 271 273 276 278 282 284 286 287 289 290 292 294 296 297 298 299 300 300 302 303 303 304 304 303 303 303 304 304 303 302 302 302 301 302 302 300 299 298 298 297 296
267 270 272 274 277 279 282 284 286 287 289 291 293 294 296 298 298 299 300 301 303 303 303 304 303 303 304 304 304 305 304 303 303 303 303 304 303 301 300 299 299 298 296
268 271 273 276 278 279 282 284 286 288 289 291 293 295 297 298 298 299 300 302 303 304 304 304 303 303 303 304 304 304 304 303 304 305 304 304 303 302 301 301 303 303 301
268 271 273 276 278 280 281 284 287 288 289 291 293 295 297 297 298 299 300 302 304 305 306 305 304 303 304 304 304 304 305 305 305 304 304 303 304 304 303 302 303 304 304
Height
5818 5818 5818 5818 5818 5818 5818 5817 5817 5816 5816 5815 5814 5813 5811 5810 5809 5808 5806 5805 5803 5802 5800 5798 5796 5794 5791 5789 5787 5785 5783 5781 5779 5777 5775 5773 5771 5770 5768 5766 5765 5763 5762
5812 5812 5812 5812 5812 5812 5811 5811 5811 5810 5809 5808 5807 5806 5805 5803 5802 5801 5799 5798 5796 5794 5792 5790 5788 5786 5783 5781 5779 5776 5774 5772 5769 5767 5765 5763 5761 5759 5757 5755 5753 5752 5751
5805 5806 5806 5806 5806 5805 5805 5805 5804 5803 5802 5801 5800 5799 5798 5796 5795 5793 5792 5790 5788 5786 5784 5782 5780 5777 5775 5772 5770 5767 5764 5762 5759 5757 5754 5752 5750 5748 5746 5744 5742 5740 5739
5798 5799 5799 5799 5799 5798 5798 5798 5797 5796 5795 5794 5793 5792 5791 5789 5787 5786 5784 5782 5780 5778 5776 5773 5771 5768 5765 5763 5760 5757 5754 5752 5749 5746 5743 5740 5738 5736 5733 5731 5730 5728 5727
5791 5792 5792 5792 5792 5791 5791 5791 5790 5789 5788 5787 5786 5784 5783 5781 5780 5778 5776 5774 5771 5769 5767 5764 5761 5758 5755 5752 5749 5746 5743 5740 5737 5734 5731 5728 5725 5722 5720 5718 5716 5715 5713
5784 5785 5785 5785 5785 5784 5784 5783 5783 5782 5781 5780 5778 5777 5775 5773 5772 5769 5767 5765 5762 5760 5757 5754 5752 5749 5745 5742 5738 5735 5731 5728 5725 5721 5717 5714 5711 5708 5706 5703 5702 5700 5698
5777 5777 5778 5777 5777 5777 5777 5776 5775 5774 5773 5772 5771 5770 5768 5766 5763 5761 5759 5756 5754 5751 5748 5745 5742 5738 5735 5731 5727 5723 5719 5716 5712 5708 5704 5700 5697 5694 5691 5689 5687 5685 5683
5770 5770 5770 5770 5770 5770 5769 5769 5768 5767 5765 5764 5763 5762 5761 5759 5756 5753 5750 5747 5745 5742 5739 5735 5731 5728 5724 5720 5715 5711 5707 5704 5700 5696 5692 5688 5683 5680 5677 5675 5672 5669 5667
5763 5763 5763 5763 5763 5762 5762 5761 5760 5759 5758 5756 5754 5753 5751 5750 5748 5746 5742 5739 5736 5732 5729 5726 5722 5717 5713 5708 5703 5699 5695 5691 5688 5684 5679 5675 5671 5667 5663 5660 5657 5654 5651
5755 5755 5755 5755 5755 5755 5754 5753 5752 5750 5749 5748 5746 5744 5742 5739 5738 5736 5734 5730 5727 5723 5719 5716 5711 5707 5702 5697 5692 5687 5683 5679 5675 5671 5667 5662 5657 5653 5648 5644 5640 5637 5634
5747 5748 5748 5748 5747 5746 5746 5744 5743 5742 5740 5739 5737 5735 5732 5730 5727 5726 5724 5721 5718 5714 5710 5705 5701 5696 5691 5686 5681 5676 5672 5668 5664 5659 5654 5649 5644 5639 5634 5629 5625 5621 5618
5740 5740 5740 5740 5739 5738 5738 5736 5735 5733 5732 5730 5728 5726 5723 5721 5718 5716 5713 5711 5708 5704 5699 5695 5690 5685 5680 5675 5670 5665 5660 5656 5651 5646 5641 5636 5630 5625 5620 5615 5611 5607 5603
5732 5732 5732 5732 5731 5731 5730 5728 5727 5726 5724 5722 5719 5717 5714 5712 5709 5706 5703 5700 5697 5694 5689 5684 5679 5674 5668 5663 5658 5654 5649 5643 5638 5633 5627 5622 5616 5611 5606 5601 5597 5592 5588
5724 5725 5725 5724 5724 5723 5722 5721 5719 5717 5715 5713 5711 5708 5705 5702 5699 5696 5693 5689 5686 5683 5679 5673 5668 5662 5657 5652 5647 5642 5637 5631 5625 5619 5613 5607 5601 5596 5591 5586 5582 5577 5573
5717 5717 5717 5716 5716 5715 5714 5712 5711 5709 5707 5704 5702 5699 5696 5693 5689 5686 5682 5678 5674 5671 5668 5663 5657 5651 5645 5640 5635 5629 5624 5618 5612 5605 5599 5593 5587 5582 5577 5572 5568 5563 5559
5708 5708 5708 5708 5707 5707 5705 5704 5702 5700 5698 5695 5692 5689 5686 5683 5679 5675 5671 5667 5662 5657 5654 5651 5645 5640 5634 5628 5622 5616 5610 5605 5599 5592 5586 5580 5574 5569 5563 5558 5554 5550 5546
5700 5700 5700 5700 5699 5698 5697 5695 5693 5691 5689 5686 5683 5680 5676 5673 5669 5665 5660 5655 5650 5645 5641 5638 5633 5627 5621 5616 5610 5604 5597 5591 5586 5579 5573 5567 5562 5556 5551 5546 5542 5538 5534
5691 5691 5691 5691 5690 5689 5688 5686 5684 5682 5679 5676 5673 5670 5666 5662 5658 5654 5649 5644 5638 5633 5627 5624 5621 5615 5609 5603 5597 5591 5585 5579 5573 5567 5561 5556 5551 5545 5540 5536 5531 5527 5523
5682 5682 5682 5682 5681 5680 5679 5677 5675 5672 5669 5666 5663 5660 5656 5652 5648 5643 5638 5633 5627 5621 5616 5611 5607 5603 5597 5591 5584 5579 5572 5567 5560 5555 5550 5545 5540 5536 5531 5526 5522 5517 5513
5673 5673 5673 5673 5672 5671 5669 5667 5665 5662 5659 5656 5653 5649 5645 5641 5637 5632 5627 5622 5616 5610 5605 5599 5595 5590 5584 5578 5572 5567 5562 5556 5550 5545 5540 5535 5531 5526 5522 5517 5513 5509 5505
5664 5664 5664 5663 5662 5661 5659 5657 5655 5652 5649 5646 5643 5639 5635 5630 5625 5621 5616 5611 5605 5600 5594 5589 5584 5578 5572 5566 5561 5556 5550 5545 5540 5535 5531 5526 5522 5518 5513 5509 5504 5500 5496
5654 5654 5654 5654 5653 5651 5650 5647 5645 5642 5639 5636 5633 5629 5625 5620 5615 5611 5606 5600 5595 5589 5583 5578 5573 5567 5561 5556 5550 5545 5540 5535 5532 5528 5522 5518 5513 5509 5504 5500 5496 5492 5489
5645 5645 5644 5644 5643 5641 5640 5637 5635 5632 5629 5626 5623 5619 5615 5610 5605 5601 5596 5590 5585 5578 5573 5567 5562 5556 5551 5546 5541 5537 5531 5526 5522 5518 5514 5510 5506 5501 5496 5492 5488 5485 5482
5635 5635 5634 5634 5633 5631 5630 5627 5625 5622 5619 5616 5613 5609 5605 5600 5595 5591 5586 5581 5575 5569 5563 5557 5552 5547 5541 5536 5532 5528 5523 5519 5515 5510 5506 5503 5498 5494 5490 5485 5481 5478 5475
5625 5625 5625 5624 5623 5621 5619 5617 5615 5612 5609 5606 5602 5598 5594 5590 5586 5581 5576 5571 5566 5560 5554 5548 5543 5537 5532 5528 5524 5520 5516 5512 5509 5504 5499 5495 5491 5488 5484 5479 5475 5471 5468
5615 5615 5615 5614 5613 5611 5609 5607 5605 5602 5600 5596 5593 5589 5584 5580 5576 5570 5566 5561 5556 5551 5546 5540 5535 5529 5524 5520 5516 5512 5508 5504 5501 5498 5494 5489 5485 5481 5478 5474 5470 5467 5464